DFSAG EDFB-EDDS

Flight info

Callsign DFSAG
Flight time 0h 28m
Altitude 19000
Route MEFTO DCT CHA DCT LBU
Aircraft TBM9/L-SDFGRWY/S

Departure

Time 2026-05-07 11:53
Airport Reichelsheim Airfield (EDFB)

Arrival

Time 2026-05-07 12:22
Airport Stuttgart Airport (EDDS)
Time Latitude Longitude Altitude Speed Heading
2026-05-07 11:53 50.27873 8.85857 2495 ft 205 kts 198°
2026-05-07 11:53 50.26461 8.85638 2491 ft 205 kts 176°
2026-05-07 11:53 50.25086 8.86191 2497 ft 204 kts 160°
2026-05-07 11:54 50.23759 8.86938 2494 ft 202 kts 162°
2026-05-07 11:54 50.22454 8.87645 2691 ft 191 kts 162°
2026-05-07 11:54 50.21243 8.88308 3034 ft 180 kts 162°
2026-05-07 11:54 50.20094 8.88935 3293 ft 178 kts 162°
2026-05-07 11:55 50.18882 8.89582 3298 ft 189 kts 162°
2026-05-07 11:55 50.17614 8.90263 3295 ft 195 kts 162°
2026-05-07 11:55 50.16314 8.90961 3302 ft 199 kts 162°
2026-05-07 11:55 50.15000 8.91672 3307 ft 200 kts 162°
2026-05-07 11:56 50.13685 8.92383 3312 ft 201 kts 162°
2026-05-07 11:56 50.12354 8.93099 3306 ft 202 kts 162°
2026-05-07 11:56 50.11021 8.93816 3320 ft 203 kts 162°
2026-05-07 11:56 50.09688 8.94536 3322 ft 203 kts 162°
2026-05-07 11:57 50.08358 8.95251 3392 ft 199 kts 162°
2026-05-07 11:57 50.07021 8.95976 3741 ft 206 kts 162°
2026-05-07 11:57 50.05672 8.96702 4282 ft 207 kts 162°
2026-05-07 11:57 50.04302 8.97434 4779 ft 209 kts 162°
2026-05-07 11:58 50.02923 8.98174 5249 ft 210 kts 162°
2026-05-07 11:58 50.01529 8.98922 5697 ft 213 kts 162°
2026-05-07 11:58 50.00131 8.99671 6156 ft 215 kts 162°
2026-05-07 11:58 49.98703 9.00436 6595 ft 217 kts 163°
2026-05-07 11:59 49.97274 9.01200 7030 ft 218 kts 163°
2026-05-07 11:59 49.95832 9.01973 7473 ft 220 kts 163°
2026-05-07 11:59 49.94381 9.02750 7907 ft 221 kts 163°
2026-05-07 11:59 49.92925 9.03528 8345 ft 222 kts 163°
2026-05-07 12:00 49.91439 9.04194 8770 ft 222 kts 172°
2026-05-07 12:00 49.89914 9.04633 9212 ft 224 kts 172°
2026-05-07 12:00 49.88381 9.05090 9694 ft 225 kts 172°
2026-05-07 12:00 49.86841 9.05563 10127 ft 227 kts 172°
2026-05-07 12:01 49.85288 9.06036 10534 ft 228 kts 172°
2026-05-07 12:01 49.83732 9.06507 10940 ft 228 kts 172°
2026-05-07 12:01 49.82167 9.06984 11332 ft 229 kts 172°
2026-05-07 12:01 49.80597 9.07458 11735 ft 231 kts 172°
2026-05-07 12:02 49.79017 9.07936 12128 ft 232 kts 172°
2026-05-07 12:02 49.77435 9.08414 12555 ft 232 kts 172°
2026-05-07 12:02 49.75839 9.08897 12953 ft 234 kts 172°
2026-05-07 12:02 49.74219 9.09381 13030 ft 248 kts 172°
2026-05-07 12:03 49.72482 9.09897 13031 ft 259 kts 172°
2026-05-07 12:03 49.70695 9.10434 13037 ft 266 kts 172°
2026-05-07 12:03 49.68860 9.10988 13044 ft 270 kts 172°
2026-05-07 12:03 49.66998 9.11550 13042 ft 273 kts 172°
2026-05-07 12:04 49.65126 9.12114 13043 ft 275 kts 172°
2026-05-07 12:04 49.63241 9.12681 13039 ft 276 kts 172°
2026-05-07 12:04 49.61354 9.13249 13040 ft 277 kts 172°
2026-05-07 12:04 49.59465 9.13817 13037 ft 277 kts 172°
2026-05-07 12:05 49.57570 9.14386 13028 ft 277 kts 172°
2026-05-07 12:05 49.55679 9.14951 13031 ft 277 kts 172°
2026-05-07 12:05 49.53781 9.15520 13026 ft 277 kts 172°
2026-05-07 12:05 49.51889 9.16088 13018 ft 277 kts 172°
2026-05-07 12:06 49.49999 9.16653 13030 ft 277 kts 172°
2026-05-07 12:06 49.48108 9.17219 13022 ft 276 kts 172°
2026-05-07 12:06 49.46244 9.17775 13025 ft 276 kts 172°
2026-05-07 12:06 49.44357 9.18338 13019 ft 276 kts 172°
2026-05-07 12:07 49.42465 9.18902 13023 ft 276 kts 172°
2026-05-07 12:07 49.40576 9.19465 13016 ft 276 kts 172°
2026-05-07 12:07 49.38693 9.20025 13020 ft 276 kts 172°
2026-05-07 12:07 49.36805 9.20587 13019 ft 276 kts 172°
2026-05-07 12:08 49.34922 9.21147 13020 ft 276 kts 172°
2026-05-07 12:08 49.33064 9.21699 13019 ft 275 kts 172°
2026-05-07 12:08 49.31160 9.22264 13018 ft 276 kts 172°
2026-05-07 12:08 49.29274 9.22823 13021 ft 275 kts 172°
2026-05-07 12:09 49.27390 9.23378 12935 ft 278 kts 172°
2026-05-07 12:09 49.25450 9.23943 12540 ft 289 kts 172°
2026-05-07 12:09 49.23449 9.24523 12152 ft 294 kts 172°
2026-05-07 12:09 49.21434 9.25120 11767 ft 296 kts 172°
2026-05-07 12:10 49.19413 9.25733 11386 ft 296 kts 172°
2026-05-07 12:10 49.17393 9.26329 11014 ft 296 kts 172°
2026-05-07 12:10 49.15374 9.26923 10633 ft 295 kts 172°
2026-05-07 12:10 49.13360 9.27513 10266 ft 294 kts 172°
2026-05-07 12:11 49.11351 9.28108 9900 ft 293 kts 173°
2026-05-07 12:11 49.09378 9.28685 9503 ft 292 kts 173°
2026-05-07 12:11 49.07388 9.29271 9098 ft 290 kts 173°
2026-05-07 12:11 49.05406 9.29844 8708 ft 289 kts 173°
2026-05-07 12:12 49.03424 9.30380 8316 ft 288 kts 173°
2026-05-07 12:12 49.01459 9.30960 8006 ft 286 kts 172°
2026-05-07 12:12 48.99509 9.31552 7592 ft 286 kts 172°
2026-05-07 12:12 48.97602 9.32116 7189 ft 269 kts 173°
2026-05-07 12:13 48.95802 9.32661 6793 ft 259 kts 172°
2026-05-07 12:13 48.94057 9.33192 6444 ft 252 kts 173°
2026-05-07 12:13 48.92350 9.33707 6111 ft 248 kts 170°
2026-05-07 12:13 48.90784 9.34716 5820 ft 248 kts 152°
2026-05-07 12:14 48.89420 9.36290 5610 ft 245 kts 143°
2026-05-07 12:14 48.88102 9.37911 5429 ft 241 kts 144°
2026-05-07 12:14 48.86799 9.39487 5247 ft 239 kts 144°
2026-05-07 12:14 48.85499 9.41074 5065 ft 239 kts 144°
2026-05-07 12:15 48.84216 9.42641 5006 ft 234 kts 144°
2026-05-07 12:15 48.82962 9.44171 5000 ft 229 kts 144°
2026-05-07 12:15 48.81722 9.45678 4897 ft 232 kts 144°
2026-05-07 12:15 48.80439 9.47230 4672 ft 239 kts 144°
2026-05-07 12:16 48.79126 9.48817 4435 ft 241 kts 144°
2026-05-07 12:16 48.77828 9.50344 4191 ft 231 kts 150°
2026-05-07 12:16 48.76373 9.51006 4111 ft 212 kts 184°
2026-05-07 12:16 48.74995 9.50532 4109 ft 198 kts 211°
2026-05-07 12:17 48.73964 9.49253 4109 ft 190 kts 236°
2026-05-07 12:17 48.73416 9.47479 4112 ft 185 kts 260°
2026-05-07 12:17 48.73335 9.45558 4051 ft 179 kts 263°
2026-05-07 12:17 48.73052 9.43759 3835 ft 177 kts 257°
2026-05-07 12:18 48.72738 9.41966 3598 ft 176 kts 256°
2026-05-07 12:18 48.72396 9.40188 3363 ft 174 kts 256°
2026-05-07 12:18 48.72065 9.38454 3135 ft 171 kts 257°
2026-05-07 12:18 48.71739 9.36718 2896 ft 172 kts 256°
2026-05-07 12:19 48.71409 9.34988 2668 ft 170 kts 258°
2026-05-07 12:19 48.71104 9.33359 2444 ft 149 kts 257°
2026-05-07 12:19 48.70831 9.31925 2240 ft 136 kts 258°
2026-05-07 12:19 48.70586 9.30637 2076 ft 120 kts 258°
2026-05-07 12:20 48.70365 9.29464 1909 ft 114 kts 258°
2026-05-07 12:20 48.70150 9.28335 1762 ft 108 kts 258°
2026-05-07 12:20 48.69949 9.27257 1617 ft 103 kts 257°
2026-05-07 12:20 48.69749 9.26213 1471 ft 102 kts 257°
2026-05-07 12:21 48.69554 9.25172 1339 ft 104 kts 258°
2026-05-07 12:21 48.69356 9.24122 1234 ft 102 kts 257°
2026-05-07 12:21 48.69179 9.23192 1221 ft 81 kts 257°
2026-05-07 12:21 48.69043 9.22448 1236 ft 66 kts 252°
2026-05-07 12:22 48.68950 9.21902 1247 ft 43 kts 263°
2026-05-07 12:22 48.68956 9.21665 1252 ft 17 kts 285°
2026-05-07 12:22 48.68986 9.21500 1255 ft 15 kts 284°
2026-05-07 12:22 48.69009 9.21351 1262 ft 14 kts 284°
2026-05-07 12:23 48.69035 9.21216 1263 ft 13 kts 287°
2026-05-07 12:23 48.69044 9.21106 1262 ft 10 kts 273°
2026-05-07 12:23 48.69080 9.21037 1263 ft 8 kts 316°
2026-05-07 12:23 48.69118 9.21051 1262 ft 8 kts 80°
2026-05-07 12:24 48.69100 9.21075 1269 ft 0 kts 192°